Dallas Paulding County Region, GA

7:07 AM EST on November 17, 2019 (GMT -0500)
Dallas Paulding County Region

Weather History for KPUJ - June, 2019

Change the Weather History Date:

Sunday, June 2, 2019

  Actual Average (KMGE) Record (KMGE)
Temperature  
Mean Temperature 73 °F -  
Max Temperature 86 °F 79 °F 95 °F (2011)
Min Temperature 60 °F 62 °F 55 °F (1997)
Cooling Degree Days 8    
Growing Degree Days 23 (Base 50)    
Moisture  
Dew Point 59 °F    
Average Humidity 65    
Maximum Humidity 100    
Minimum Humidity 37    
Precipitation  
Precipitation 0.00 in - - ()
Sea Level Pressure  
Sea Level Pressure 29.93 in    
Wind  
Wind Speed 4 mph ()    
Max Wind Speed 15 mph    
Max Gust Speed 36 mph    
Visibility 9.4 miles    
Events Rain    
Averages and records for this station are not official NWS values.
T = Trace of Precipitation, MM = Missing Value Source: Averaged Metar Reports

Daily Weather History Graph

Daily Weather History Graph

Search for Another Location

Airport or City:

Astronomy

Jun. 02, 2019 Rise Set
Actual Time 6:29 AM EDT 8:46 PM EDT
Civil Twilight 6:00 AM EDT 9:14 PM EDT
Nautical Twilight 5:25 AM EDT 9:50 PM EDT
Astronomical Twilight 4:47 AM EDT 10:28 PM EDT
Moon 6:03 AM EDT (6/2) 8:07 PM EDT (6/2)
Length of Visible Light 15h 14m
Length of Day
14h 16m
Waning Crescent, 1% of the Moon is Illuminated
Jun 2
Waning Crescent
Jun 3
New
Jun 10
First Quarter
Jun 17
Full
Jun 25
Last Quarter

Hourly Weather History & Observations

Time (EDT) Temp. Heat Index Dew Point Humidity Pressure Visibility Wind Dir Wind Speed Gust Speed Precip Events Conditions
12:15 AM 69.8 °F - 55.4 °F 60% 29.93 in 10.0 mi NW 5.8 mph - N/A   Clear
12:35 AM 69.8 °F - 55.4 °F 60% 29.92 in 10.0 mi NW 4.6 mph - N/A   Clear
12:55 AM 69.8 °F - 55.4 °F 60% 29.92 in 10.0 mi NW 5.8 mph - N/A   Clear
1:15 AM 69.8 °F - 55.4 °F 60% 29.92 in 10.0 mi NW 4.6 mph - N/A   Clear
1:35 AM 68.0 °F - 55.4 °F 64% 29.91 in 10.0 mi NW 4.6 mph - N/A   Clear
1:55 AM 68.0 °F - 55.4 °F 64% 29.91 in 10.0 mi NW 5.8 mph - N/A   Clear
2:15 AM 68.0 °F - 55.4 °F 64% 29.90 in 10.0 mi WNW 4.6 mph - N/A   Clear
2:35 AM 66.2 °F - 55.4 °F 68% 29.90 in 10.0 mi WNW 3.5 mph - N/A   Clear
2:55 AM 64.4 °F - 55.4 °F 73% 29.90 in 10.0 mi NW 3.5 mph - N/A   Clear
3:15 AM 64.4 °F - 55.4 °F 73% 29.90 in 10.0 mi NW 4.6 mph - N/A   Clear
3:35 AM 64.4 °F - 55.4 °F 73% 29.90 in 10.0 mi NW 4.6 mph - N/A   Clear
3:55 AM 64.4 °F - 55.4 °F 73% 29.90 in 10.0 mi NW 5.8 mph - N/A   Clear
4:15 AM 66.2 °F - 55.4 °F 68% 29.90 in 10.0 mi NW 4.6 mph - N/A   Clear
4:35 AM 62.6 °F - 55.4 °F 77% 29.90 in 10.0 mi Calm Calm - N/A   Clear
4:55 AM 62.6 °F - 55.4 °F 77% 29.90 in 10.0 mi WNW 4.6 mph - N/A   Clear
5:15 AM 62.6 °F - 55.4 °F 77% 29.91 in 10.0 mi NW 4.6 mph - N/A   Clear
5:35 AM 62.6 °F - 55.4 °F 77% 29.91 in 10.0 mi NW 3.5 mph - N/A   Clear
5:55 AM 62.6 °F - 55.4 °F 77% 29.91 in 10.0 mi Calm Calm - N/A   Clear
6:15 AM 60.8 °F - 55.4 °F 82% 29.92 in 10.0 mi WNW 3.5 mph - N/A   Clear
6:35 AM 62.6 °F - 55.4 °F 77% 29.92 in 10.0 mi WNW 3.5 mph - N/A   Clear
6:55 AM 62.6 °F - 55.4 °F 77% 29.93 in 10.0 mi WNW 3.5 mph - N/A   Clear
7:15 AM 62.6 °F - 55.4 °F 77% 29.93 in 10.0 mi Calm Calm - N/A   Clear
7:35 AM 64.4 °F - 57.2 °F 77% 29.94 in 10.0 mi WNW 3.5 mph - N/A   Clear
7:55 AM 66.2 °F - 57.2 °F 73% 29.94 in 10.0 mi WNW 3.5 mph - N/A   Clear
8:15 AM 68.0 °F - 59.0 °F 73% 29.95 in 10.0 mi Calm Calm - N/A   Clear
8:35 AM 69.8 °F - 59.0 °F 68% 29.95 in 10.0 mi West 3.5 mph - N/A   Clear
8:55 AM 69.8 °F - 59.0 °F 68% 29.95 in 10.0 mi West 3.5 mph - N/A   Clear
9:15 AM 71.6 °F - 60.8 °F 69% 29.95 in 10.0 mi West 3.5 mph - N/A   Clear
9:35 AM 73.4 °F - 60.8 °F 65% 29.95 in 10.0 mi Calm Calm - N/A   Clear
9:55 AM 75.2 °F - 60.8 °F 61% 29.95 in 10.0 mi Calm Calm - N/A   Clear
10:15 AM 77.0 °F - 60.8 °F 57% 29.95 in 10.0 mi NW 5.8 mph - N/A   Clear
10:35 AM 78.8 °F - 59.0 °F 51% 29.96 in 10.0 mi NNW 8.1 mph - N/A   Clear
10:55 AM 78.8 °F - 59.0 °F 51% 29.96 in 10.0 mi NW 9.2 mph - N/A   Clear
11:15 AM 78.8 °F - 59.0 °F 51% 29.96 in 10.0 mi NNW 8.1 mph - N/A   Clear
11:35 AM 80.6 °F 81.1 °F 59.0 °F 48% 29.96 in 10.0 mi NNW 15.0 mph 18.4 mph N/A   Clear
11:55 AM 80.6 °F 81.1 °F 59.0 °F 48% 29.96 in 10.0 mi NW 12.7 mph 17.3 mph N/A   Clear
12:15 PM 80.6 °F 81.1 °F 59.0 °F 48% 29.96 in 10.0 mi NW 6.9 mph - N/A   Clear
12:35 PM 80.6 °F 81.1 °F 59.0 °F 48% 29.96 in 10.0 mi WNW 8.1 mph - N/A   Clear
12:55 PM 80.6 °F 81.1 °F 59.0 °F 48% 29.95 in 10.0 mi NNW 10.4 mph 17.3 mph N/A   Scattered Clouds
1:15 PM 82.4 °F 82.5 °F 59.0 °F 45% 29.95 in 10.0 mi NNW 9.2 mph - N/A   Mostly Cloudy
1:55 PM 86.0 °F 85.4 °F 59.0 °F 40% 29.94 in 10.0 mi NW 6.9 mph 17.3 mph N/A   Scattered Clouds
2:15 PM 84.2 °F 83.5 °F 57.2 °F 40% 29.94 in 10.0 mi NW 10.4 mph - N/A   Scattered Clouds
2:35 PM 84.2 °F 83.0 °F 55.4 °F 37% 29.93 in 10.0 mi NNW 10.4 mph - N/A   Scattered Clouds
2:55 PM 86.0 °F 84.9 °F 57.2 °F 37% 29.93 in 10.0 mi WNW 6.9 mph 16.1 mph N/A   Clear
3:15 PM 86.0 °F 84.9 °F 57.2 °F 37% 29.93 in 10.0 mi WNW 6.9 mph - N/A   Scattered Clouds
3:35 PM 86.0 °F 84.9 °F 57.2 °F 37% 29.92 in 10.0 mi WNW 5.8 mph - N/A   Scattered Clouds
3:55 PM 86.0 °F 85.4 °F 59.0 °F 40% 29.92 in 10.0 mi West 3.5 mph - N/A   Scattered Clouds
4:15 PM 86.0 °F 84.9 °F 57.2 °F 37% 29.91 in 10.0 mi NW 6.9 mph - N/A   Mostly Cloudy
4:35 PM 86.0 °F 85.4 °F 59.0 °F 40% 29.90 in 10.0 mi West 5.8 mph - N/A   Scattered Clouds
4:55 PM 86.0 °F 85.4 °F 59.0 °F 40% 29.90 in 10.0 mi SW 8.1 mph - N/A   Scattered Clouds
5:15 PM 86.0 °F 85.4 °F 59.0 °F 40% 29.90 in 10.0 mi WSW 5.8 mph - N/A   Scattered Clouds
5:35 PM 84.2 °F 83.8 °F 59.0 °F 42% 29.90 in 10.0 mi WNW 4.6 mph - N/A   Scattered Clouds
5:55 PM 84.2 °F 83.8 °F 59.0 °F 42% 29.90 in 10.0 mi West 4.6 mph - N/A   Scattered Clouds
6:15 PM 84.2 °F 84.4 °F 60.8 °F 45% 29.90 in 10.0 mi West 3.5 mph - N/A   Clear
6:35 PM 82.4 °F 82.9 °F 60.8 °F 48% 29.91 in 10.0 mi Calm Calm - N/A   Unknown
6:55 PM 80.6 °F 81.5 °F 60.8 °F 51% 29.91 in 10.0 mi Calm Calm - N/A   Overcast
7:15 PM 69.8 °F - 62.6 °F 78% 29.94 in 3.0 mi NE 8.1 mph 35.7 mph N/A   Overcast
7:35 PM 69.8 °F - 68.0 °F 94% 29.93 in 10.0 mi ESE 5.8 mph - N/A Rain Rain
7:55 PM 68.0 °F - 68.0 °F 100% 29.93 in 10.0 mi South 3.5 mph - N/A   Overcast
8:15 PM 68.0 °F - 68.0 °F 100% 29.93 in 7.0 mi Calm Calm - N/A   Mostly Cloudy
8:35 PM 68.0 °F - 68.0 °F 100% 29.92 in 7.0 mi Calm Calm - N/A   Clear
8:55 PM 68.0 °F - 68.0 °F 100% 29.93 in 10.0 mi Calm Calm - N/A   Scattered Clouds
9:15 PM 68.0 °F - 68.0 °F 100% 29.93 in 10.0 mi Calm Calm - N/A   Mostly Cloudy
9:35 PM 68.0 °F - 68.0 °F 100% 29.93 in 5.0 mi Calm Calm - N/A   Clear
9:55 PM 68.0 °F - 68.0 °F 100% 29.94 in 10.0 mi Calm Calm - N/A   Clear
10:15 PM 66.2 °F - 66.2 °F 100% 29.94 in 3.0 mi Calm Calm - N/A   Clear
10:35 PM 66.2 °F - 66.2 °F 100% 29.94 in 2.5 mi Calm Calm - N/A   Clear
10:55 PM 64.4 °F - 64.4 °F 100% 29.94 in 1.5 mi Calm Calm - N/A   Mist
11:15 PM 64.4 °F - - N/A% 29.94 in 5.0 mi West 3.5 mph - N/A   Haze
11:35 PM 64.4 °F - - N/A% 29.94 in 10.0 mi WSW 4.6 mph - N/A   Clear
11:55 PM 66.2 °F - - N/A% 29.95 in 10.0 mi WSW 4.6 mph - N/A   Clear